Home > Weather > Sutton Coldfield > Past weeks

Flag for United Kingdom Past Weather in Sutton Coldfield, England, United Kingdom — Yesterday and Last 2 Weeks

Now
64 °F

Scattered clouds.


Feels Like: 64 °F
Forecast: 54 / 65 °F
Wind: 15 mph from Northwest

Location: Birmingham / Airport

Current Time: Jun 25, 2016 at 6:54:30 PM

Latest Report: Jun 25, 2016 at 6:20 PM


Visibility: N/A

Pressure: 30.01 "Hg

Humidity: 56%

Dew Point: 48 °F

Location of Sutton ColdfieldLocation

Past Weather in Sutton Coldfield — Graph

°F

Sutton Coldfield Temperature Yesterday

Maximum temperature yesterday: 68 °F (at 1:50 PM)
Minimum temperature yesterday: 50 °F (at 4:50 AM)
Average temperature yesterday: 61 °F

High & Low Weather Summary for the Past Weeks

 TemperatureHumidityPressure
High70 °F (Jun 10, 5:20 PM)100% (Jun 10, 10:50 PM)30.21 "Hg (Jun 10, 10:50 PM)
Low50 °F (Jun 24, 4:50 AM)43% (Jun 24, 4:50 PM)29.33 "Hg (Jun 14, 4:50 PM)
Average60 °F83%29.82 "Hg
* Reported Jun 10 5:20 PM — Jun 25 5:20 PM, Sutton Coldfield, Weather by CustomWeather, © 2016

Note: Actual official high and low records may vary slightly from our data, if they occured in-between our weather recording intervals... More about our weather records

Advertising

Sutton Coldfield Weather History for the Previous 24 Hours

Scroll right to see more
 ConditionsComfort  
Time TempWeatherWind HumidityBarometerVisibility
5:20 PM
Sat, Jun 25
64 °FPassing clouds.8 mph60%30.01 "HgN/A
4:50 PM63 °FScattered clouds.7 mph68%30.01 "HgN/A
4:20 PM64 °FBroken clouds.12 mph64%30.01 "HgN/A
3:50 PM61 °FScattered showers. Partly sunny.7 mph77%30.01 "HgN/A
3:20 PM66 °FScattered showers. Partly sunny.13 mph56%30.01 "HgN/A
2:50 PM66 °FScattered clouds.9 mph52%30.01 "HgN/A
2:20 PM66 °FScattered clouds.9 mph52%30.01 "HgN/A
1:50 PM64 °FBroken clouds.10 mph56%30.01 "HgN/A
1:20 PM61 °FScattered clouds.9 mph63%30.01 "HgN/A
12:50 PM63 °FSprinkles. Scattered clouds.10 mph64%30.01 "HgN/A
12:20 PM64 °FPartly sunny.8 mph56%30.01 "HgN/A
11:50 AM63 °FScattered showers. Scattered clouds.8 mph64%30.01 "HgN/A
11:20 AM63 °FScattered clouds.9 mph59%30.01 "HgN/A
10:50 AM63 °FScattered clouds.6 mph64%30.01 "HgN/A
10:20 AM61 °FScattered clouds.7 mph68%30.04 "HgN/A
9:50 AM59 °FScattered clouds.7 mph72%30.04 "HgN/A
9:20 AM59 °FScattered clouds.7 mph77%30.04 "HgN/A
8:50 AM59 °FPartly sunny.6 mph77%30.04 "HgN/A
8:20 AM57 °FScattered clouds.6 mph82%30.04 "HgN/A
7:50 AM57 °FPassing clouds.6 mph82%30.01 "HgN/A
7:20 AM57 °FScattered clouds.5 mph82%30.01 "HgN/A
6:50 AM55 °FScattered clouds.7 mph88%30.01 "HgN/A
6:20 AM55 °FScattered clouds.3 mph88%30.01 "HgN/A
5:50 AM55 °FScattered clouds.5 mph88%30.01 "HgN/A
5:20 AM55 °FClear.3 mph88%30.01 "Hg10 mi
4:50 AM55 °FPassing clouds.5 mph82%30.01 "HgN/A
4:20 AM55 °FPassing clouds.5 mph88%30.01 "HgN/A
3:50 AM54 °FClear.3 mph94%30.01 "Hg10 mi
3:20 AM55 °FClear.3 mph82%30.01 "Hg10 mi
2:50 AM57 °FClear.5 mph77%30.01 "Hg10 mi
2:20 AM57 °FClear.5 mph77%30.01 "Hg10 mi
1:50 AM57 °FPassing clouds.5 mph77%30.01 "HgN/A
1:20 AM57 °FPassing clouds.5 mph77%30.01 "HgN/A
12:50 AM57 °FPassing clouds.3 mph77%30.04 "HgN/A
12:20 AM59 °FPassing clouds.6 mph72%30.04 "HgN/A
11:50 PM
Fri, Jun 24
59 °FPassing clouds.5 mph72%30.04 "HgN/A
11:20 PM59 °FPassing clouds.5 mph72%30.04 "HgN/A
10:50 PM59 °FPassing clouds.5 mph68%30.04 "HgN/A
10:20 PM61 °FScattered clouds.6 mph63%30.04 "HgN/A
9:50 PM61 °FScattered clouds.5 mph63%30.01 "HgN/A
9:20 PM59 °FScattered showers. Scattered clouds.7 mph68%30.01 "HgN/A
8:50 PM61 °FScattered showers. Scattered clouds.9 mph59%30.01 "HgN/A
8:20 PM63 °FScattered showers. Scattered clouds.8 mph56%30.01 "HgN/A
7:50 PM63 °FScattered showers. Scattered clouds.10 mph59%30.01 "HgN/A
7:20 PM64 °FPassing clouds.8 mph56%30.01 "HgN/A
6:50 PM64 °FScattered clouds.10 mph56%30.01 "HgN/A
6:20 PM64 °FScattered clouds.13 mph56%30.01 "HgN/A
Weather by CustomWeather, © 2016

See weather overviewHow to use our weather pages